Regional Weather Roundup
Issued by NWS Upton, NY

Current Version | Previous Version | Text Only | Print | Product List | Glossary On
Versions: 1 2 3 4 5 6 7 8 9 10 11 12 13 14 15 16 17 18 19 20 21 22 23 24 25 26 27
000
ASUS41 KOKX 190308
RWROKX

REGIONAL WEATHER ROUNDUP
NATIONAL WEATHER SERVICE NEW YORK NY
1100 PM EDT WED OCT 18 2017

NOTE: "FAIR" INDICATES FEW OR NO CLOUDS BELOW 12,000 FEET WITH NO
SIGNIFICANT WEATHER AND/OR OBSTRUCTIONS TO VISIBILITY.

NYZ071-072-176-178-NJZ106-104-190400-
NEW YORK CITY METRO AREA

CITY           SKY/WX    TMP DP  RH WIND       PRES   REMARKS
Central Park   CLEAR     64  47  53 W8        30.31S
Bronx Bot Gard   N/A     63  45  51 W3        30.29F
LaGuardia APRT CLEAR     65  48  54 SW7       30.28S
Kennedy INTL   CLEAR     60  52  74 SW8       30.30S
Breezy Point     N/A     61 N/A N/A SW7         N/A
Newark/Liberty CLEAR     59  47  64 SW8       30.29S
Teterboro      CLEAR     60  47  61 CALM      30.28S
$$

NYZ177-179-078>081-190400-
LONG ISLAND NEW YORK

CITY           SKY/WX    TMP DP  RH WIND       PRES   REMARKS
Jones Beach      N/A     63 N/A N/A SW6         N/A
Matinecock PT    N/A     63 N/A N/A SW12        N/A
Farmingdale    CLEAR     57  53  86 CALM      30.29F
MacArthur/ISP  CLEAR     53  52  96 CALM      30.29S
Shirley        CLEAR     53  51  93 CALM      30.30S
Mt Sinai Harb    N/A    N/A N/A N/A SW7         N/A
Westhampton    CLEAR     43  40  89 CALM      30.31S
East Hampton   FAIR      45  44  96 CALM      30.29F
Montauk          N/A     58  55  90 CALM      30.31S
$$

NYZ052-065-067-190400-
HUDSON VALLEY

CITY           SKY/WX    TMP DP  RH WIND       PRES   REMARKS
White Plains   CLEAR     55  51  86 W3        30.28F
Larchmont Harb   N/A     63 N/A N/A S2          N/A
Croton On Huds   N/A     54 N/A N/A E2          N/A
Newburgh       CLEAR     57  48  72 CALM      30.29S
Montgomery     CLEAR     48  46  93 CALM      30.27S
Poughkeepsie   CLEAR     48  45  89 CALM      30.26F
Albany         CLEAR     54  45  71 S5        30.24S
$$

NJZ001-105-106-008-010-013-015-019>022-104-190400-
NEW JERSEY

CITY           SKY/WX    TMP DP  RH WIND       PRES   REMARKS
Newark/Liberty CLEAR     59  47  64 SW8       30.29S
Teterboro      CLEAR     60  47  61 CALM      30.28S
Caldwell       CLEAR     51  50  96 CALM      30.29S
Somerville     CLEAR     48  47  96 CALM      30.28S
Linden         FAIR      59  46  60 CALM      30.30S
Perth Amboy      N/A     57 N/A N/A W6          N/A
Sussex         CLEAR     47  46  97 CALM      30.28F
Andover          N/A     47  46  97 CALM      30.29S
Trenton        CLEAR     54  47  77 CALM      30.30S
Millville      CLEAR     49  47  93 CALM      30.32F
Atlantic City  CLEAR     55  51  86 SW3       30.32S
Wrightstown    CLEAR     53  49  84 CALM      30.28F
Toms River       N/A     48  45  89 CALM      30.32F
Belmar         CLEAR     55  47  74 SW7       30.32S
$$

PAZ047>061-062-071-190400-
EASTERN PENNSYLVANIA

CITY           SKY/WX    TMP DP  RH WIND       PRES   REMARKS
Philadelphia   CLEAR     58  50  75 S5        30.31F
Allentown      CLEAR     49  44  83 NW3       30.29S
Scranton       CLEAR     52  44  74 E3        30.27F
$$

CTZ002-004>006-009-010-012-RIZ004-006-007-MAZ004-011-015-190400-
SOUTHERN NEW ENGLAND
 IN CT

CITY           SKY/WX    TMP DP  RH WIND       PRES   REMARKS
Bradley INTL   CLEAR     51  46  83 CALM      30.27F
Hartford       CLEAR     52  49  89 CALM      30.27F
Danbury        CLEAR     47  44  90 CALM      30.29F
Wtrbury/Oxford CLEAR     50  47  89 CALM      30.29F
Norwalk Harbor   N/A     57 N/A N/A NW3         N/A
Bridgeport     CLEAR     57  51  80 CALM      30.28S
Meriden        CLEAR     47  45  93 CALM      30.28F
New Haven      CLEAR     51  48  89 CALM      30.28F
Chester        FAIR      57  54  88 CALM      30.29S
Groton         CLEAR     51  49  92 NW3       30.28F
Wilimantic     CLEAR     47  45  93 NE3       30.29F

 IN RI

CITY           SKY/WX    TMP DP  RH WIND       PRES   REMARKS
Providence     CLEAR     54  50  86 CALM      30.29F
Block Island   CLEAR     55  53  93 SW8       30.30S
Westerly       CLEAR     50  48  93 CALM      30.30S
 IN MA

CITY           SKY/WX    TMP DP  RH WIND       PRES   REMARKS
Boston         CLEAR     57  46  66 S5        30.27S
Worcester      CLEAR     54  43  66 W9        30.27F
Westfield      CLEAR     44  44 100 S3        30.27S
Provincetown   CLEAR     57  55  93 SW7       30.28F
Nantucket      CLEAR     56  56 100 SW8       30.30F
$$

ANZ330-335-338-340-345-350-353-355-190400-
COASTAL MARINE OBSERVATIONS


STATION/POSITION TIME  SKY/WX   TEMP    WIND        PRES    VSBY  WAVE
                                AIR SEA DIR/SP/G                  HT/PER
                 (UTC)          (F)     (DEG/KT/KT) (MB)    (MI)  (FT/S)
NY HARB ENTRANCE 0150            65 65  230/ 12/ 14 1025.3          2/10
20 S FIRE ISLAND 0150            65 63  230/ 14/ 16 1026.1          3/ 9
GREAT SOUTH BAY  0230            63 62  240/  8/ 10   N/A
15 E BARNEGAT LI 0230               66                N/A           3/10
HUDSON CANYON    0150            64 65  240/ 12/ 14 1026.2          3/10
KINGS POINT      0236            63 66  230/  7/  9 1026.2
EXECUTION ROCKS  0230            63     180/ 10/ 12   N/A
WESTERN LI SOUND 0149            65     210/ 12/ 14   N/A           1
CENTRAL LI SOUND NOT AVBL
EASTERN LI SOUND NOT AVBL
ROBBINS REEF     0236            64     240/ 13/ 14 1026.1
$$


>>>>>>>>>>>>>>>>>>>>>>>>>>>> KEY <<<<<<<<<<<<<<<<<<<<<<<<<<<
>                                                          <
>     SKY/WX - Sky Condition/Present Weather               <
>     TMP    - Temperature in Fahrenheit                   <
>     DP     - Dew Point in Fahrenheit                     <
>     RH     - Relative Humidity in Percent                <
>     WIND   - Direction (from) and Speed in MPH           <
>     PRES   - Mean Sea Level Pressure (inches of Hg)      <
>     WCI    - Wind Chill Index                            <
>     VSB    - VISIBILITY IN MILES                         <
>     HX     - HEAT INDEX                                  <
>     TC     - TEMPERATURE IN CELSIUS                      <
>     VRB    - VARIABLE WIND DIRECTION                     <
>                                                          <
>>>>>>>>>>>>>>>>>>>>>>>>>>>> KEY <<<<<<<<<<<<<<<<<<<<<<<<<<<




USA.gov is the U.S. government's official web portal to all federal, state and local government web resources and services.